Tracking 22441 objects as of 28-Feb-2021
HD Live streaming from Space Station
objects crossing your sky now

FREGAT DEB

Track FREGAT DEB now!
10-day predictions


NORAD ID: 46018
Int'l Code: 2011-037HV
Perigee: 463.5 km
Apogee: 3,543.3 km
Inclination: 51.4 °
Period: 127.1 minutes
Semi major axis: 8374 km
RCS: Unknown
Launch date: July 18, 2011
Source: Commonwealth of Independent States (former USSR) (CIS)
Launch site: TYURATAM MISSILE AND SPACE COMPLEX (TTMTR)

Note: This is SATELLITE DEBRIS
aabbcc
Your satellite tracking list
Your tracking list is empty




NASA's NSSDC Master Catalog

Two Line Element Set (TLE):
1 46018U 11037HV  21059.37955440  .00002887  00000-0  83072-3 0  9993
2 46018  51.4077  61.0534 1838783 199.9892 151.8618 11.32844910 24187
Source of the keplerian elements: AFSPC